LITUANICASAT-2 (42768 NORAD) Tracking and Keplerian Element Data

This shows tracking and keplerian element data for the satellite.

Feedback or suggestion? Click here.




ElementValue
Catalog42768
NameLITUANICASAT-2
Epoch Orbit7756
Epoch Day319.44843514
Epoch Year2018
RAAN16.2896
Inclination97.3852
Eccentricity0.0013923
Argument of Perigee253.9698
Mean Anonmoly106.0005
Mean Motion15.21960963
Decay Rate1.869E-05
L11 42768U 17036D 18319.44843514 .00001869 00000-0 84832-4 0 9992
L22 42768 97.3852 16.2896 0013923 253.9698 106.0005 15.21960963 77564

Live tracking and technical data element details for LITUANICASAT-2 (NORAD 42768). LITUANICASAT-2 can be tracked NOW for your location showing map with azimuth and elevation plus other details from your city location.

Track the satellite on the map from your city or location and see movement details for azimuth, elevation, latitude, longitude, range, height, and movement on the map or in text.







IsCatalogInMostPopularTable: catalog: 42768, numindb: 130
Update: records affected: 1



GetName: 42768 LITUANICASAT-2

Hit Count: updated at: Fri, 16 Nov 2018 11:20:00 GMT